EST,Max TemperatureF,Mean TemperatureF,Min TemperatureF,Max Dew PointF,MeanDew PointF,Min DewpointF,Max Humidity, Mean Humidity, Min Humidity, Max Sea Level PressureIn, Mean Sea Level PressureIn, Min Sea Level PressureIn, Max VisibilityMiles, Mean VisibilityMiles, Min VisibilityMiles, Max Wind SpeedMPH, Mean Wind SpeedMPH, Max Gust SpeedMPH,PrecipitationIn, CloudCover, Events, WindDirDegrees
2012-11-1,75,62,50,61,55,50,100,86,53,30.06,30.02,29.97,10,8,4,13,2,16,0.00,1,,254
2012-11-2,77,64,50,61,51,45,100,73,32,30.10,30.06,30.04,10,8,0,8,2,,0.00,0,Fog,284
2012-11-3,82,65,48,61,54,48,100,79,39,30.12,30.09,30.07,10,9,1,6,0,,0.00,0,,77
2012-11-4,80,66,53,61,56,52,100,79,37,30.12,30.07,30.01,10,7,0,9,1,,0.00,1,Fog,253
2012-11-5,77,67,57,61,57,54,100,73,44,30.04,29.99,29.94,10,8,0,8,2,,0.00,2,Fog,295
2012-11-6,75,65,55,63,58,55,100,81,53,29.96,29.89,29.83,10,10,8,14,3,16,0.00,1,,269
2012-11-7,64,55,46,55,48,41,100,76,42,30.02,29.94,29.88,10,10,7,18,5,20,0.00,1,,302
2012-11-8,64,56,48,45,41,34,87,60,32,30.20,30.11,30.02,10,10,9,10,6,,0.00,1,,352
2012-11-9,71,56,41,48,43,37,100,69,29,30.26,30.22,30.19,10,10,6,8,3,,0.00,0,,38
2012-11-10,73,62,50,54,50,46,87,67,43,30.31,30.27,30.24,10,10,5,10,5,,0.00,3,,47
2012-11-11,77,67,57,63,57,54,100,75,47,30.28,30.26,30.23,10,9,8,14,7,22,0.00,2,,52
2012-11-12,82,71,60,64,62,57,100,85,42,30.25,30.20,30.17,10,8,5,13,3,21,0.00,2,,63
2012-11-13,78,68,59,66,62,59,100,87,51,30.18,30.15,30.11,10,8,1,7,3,,0.00,0,,46
2012-11-14,77,68,59,66,63,59,100,90,57,30.17,30.14,30.11,10,8,0,10,3,,0.00,2,Fog,21
2012-11-15,66,63,59,64,62,57,100,96,83,30.16,30.12,30.09,10,6,2,10,5,,0.00,7,,13
2012-11-16,64,60,57,57,56,54,100,85,68,30.15,30.14,30.11,10,8,5,10,7,,0.00,5,,9
2012-11-17,78,68,57,61,58,54,100,80,42,30.18,30.14,30.09,10,7,5,13,9,23,0.00,5,,18
2012-11-18,71,62,53,61,57,52,94,82,57,30.20,30.16,30.12,10,9,7,15,10,21,0.00,3,,19
2012-11-19,59,54,50,54,52,50,100,89,77,30.18,30.14,30.11,10,8,5,12,5,,0.00,5,,349
2012-11-20,71,63,55,54,53,52,94,74,53,30.11,30.04,30.00,10,10,8,12,6,,0.00,2,,357
2012-11-21,71,61,51,52,47,41,100,70,33,30.12,30.05,30.01,10,9,6,15,4,18,0.00,0,,347
2012-11-22,69,56,44,46,38,32,93,58,26,30.21,30.13,30.09,10,10,9,18,4,25,0.00,0,,7
2012-11-23,69,56,42,43,38,32,87,59,25,30.18,30.15,30.11,10,10,9,10,4,,0.00,0,,336
2012-11-24,73,57,41,54,43,39,100,70,35,30.13,30.08,30.02,10,9,1,13,3,,0.00,0,,300
2012-11-25,69,55,41,45,38,32,93,68,25,30.18,30.13,30.10,10,10,8,6,2,,0.00,0,,360
2012-11-26,77,59,41,61,49,37,100,76,41,30.21,30.18,30.14,10,9,3,8,2,,0.00,1,,97
2012-11-27,78,66,55,61,58,55,100,85,47,30.20,30.15,30.10,10,7,0,9,3,,0.00,1,Fog,170
2012-11-28,69,62,55,61,55,54,100,89,60,30.29,30.21,30.14,10,7,0,15,4,18,0.00,3,Fog,6
2012-11-29,75,63,51,54,53,52,100,78,47,30.28,30.25,30.22,10,8,5,15,9,18,0.00,1,,29
2012-11-30,75,66,57,54,53,50,88,69,41,30.26,30.22,30.18,10,9,7,12,6,18,0.00,2,,49